This is the latest recevied weather packets stored in our database for station/object WP3XM. If no packets are shown the sender has not sent any weather packets the latest 10 day(s).
| Time | Temp. | Humidity | Pressure | Rain* | Wind** | Luminosity | Snow |
|---|---|---|---|---|---|---|---|
| 1778156780 | 26.67° C | 87% | 1018.7 hPa | 0 mm | - | 526 W/m² | - |
| 1778156476 | 26.11° C | 88% | 1018.8 hPa | 0 mm | - | 572 W/m² | - |
| 1778156172 | 26.11° C | 88% | 1018.7 hPa | 0 mm | - | 264 W/m² | - |
| 1778155868 | 26.11° C | 87% | 1018.6 hPa | 0 mm | - | 85 W/m² | - |
| 1778155564 | 26.11° C | 87% | 1018.4 hPa | 0 mm | - | 110 W/m² | - |
| 1778155261 | 26.11° C | 88% | 1018.6 hPa | 0 mm | - | 165 W/m² | - |
| 1778154957 | 26.11° C | 88% | 1018.6 hPa | 0 mm | - | 124 W/m² | - |
| 1778154653 | 26.11° C | 88% | 1018.3 hPa | 0 mm | - | 255 W/m² | - |
| 1778154349 | 26.11° C | 89% | 1018.5 hPa | 0 mm | - | 121 W/m² | - |
| 1778154047 | 26.11° C | 88% | 1018.3 hPa | 0 mm | - | 77 W/m² | - |
| 1778153743 | 26.11° C | 89% | 1018.4 hPa | 0 mm | - | 114 W/m² | - |
| 1778153441 | 25.56° C | 90% | 1018.3 hPa | 0 mm | - | 270 W/m² | - |
| 1778153139 | 26.11° C | 89% | 1018.3 hPa | 0 mm | - | 77 W/m² | - |
| 1778152835 | 26.11° C | 90% | 1018.1 hPa | 0 mm | - | 227 W/m² | - |
| 1778152532 | 26.11° C | 89% | 1018 hPa | 0 mm | - | 87 W/m² | - |
| 1778152229 | 26.67° C | 91% | 1018.2 hPa | 0 mm | - | 193 W/m² | - |
| 1778151925 | 25.56° C | 93% | 1018.1 hPa | 0 mm | - | 200 W/m² | - |
| 1778151622 | 25.56° C | 93% | 1018.3 hPa | 0 mm | - | 81 W/m² | - |
| 1778151319 | 25° C | 93% | 1018 hPa | 0 mm | - | 56 W/m² | - |
| 1778151015 | 25° C | 94% | 1018.2 hPa | 0 mm | - | 42 W/m² | - |
| 1778150713 | 25° C | 94% | 1018.1 hPa | 0 mm | - | 54 W/m² | - |
| 1778150408 | 25° C | 94% | 1017.9 hPa | 0 mm | - | 62 W/m² | - |
| 1778150105 | 25° C | 94% | 1018 hPa | 0 mm | - | 29 W/m² | - |
| 1778149801 | 24.44° C | 95% | 1018 hPa | 0 mm | - | 24 W/m² | - |
| 1778149498 | 24.44° C | 95% | 1018.2 hPa | 0 mm | - | 22 W/m² | - |
* Rain latest hour (hover to see other rain measurements)
** Current wind speed in m/s (hover to see current wind gust speed)